[[{"header":{"parameterUnit":"m.s-1","parameterCategory":1,"la1":30.2991,"la2":30.254,"lo1":-89.0895,"lo2":-89.0444,"dy":0.0017,"dx":0.0017,"nx":28,"ny":28,"refTime":"2025-08-20T21:00:00:Z","depth":0,"parameterNumber":2,"parameterNumberName":"U-component_of_WINDS"},"data":[0,0,0,0,0,0,0,0,0,0,0,0,0,0,0,0,0,0,0,0,0,0,0,0,0,0,0,0,0,0,0,0,0,0,0,0,0,0,0,0,0,0,0,0,0,0,0,0,0,0,0,0,0,0,0,0,0,0,0.8546,0.8547,0,0.8599,0.8599,0.86,0.8638,0.8638,0.8638,0.8639,0.8688,0.8688,0.8689,0,0,0,0,0,0,0,0,0,0,0,0,0,0.8475,0.8477,0.8546,0.8547,0.8548,0.8598,0.8599,0.86,0.8638,0.8638,0.8639,0.8639,0.8687,0.8688,0.869,0,0,0,0,0,0,0,0,0,0,0,0,0,0.8515,0.8477,0.8546,0.8573,0.8576,0.8598,0.8599,0.86,0.8638,0.8638,0.8639,0.8639,0.8687,0.8688,0.869,0.8689,0,0,0.8694,0.8695,0,0,0,0,0,0,0,0,0.8512,0.8517,0.8568,0.8571,0.8574,0.8612,0.8592,0.863,0.8638,0.8614,0.8639,0.8639,0.8662,0.8665,0.8674,0.8691,0.8693,0.8694,0.8695,0.8696,0.8696,0,0,0,0,0,0,0,0.851,0.8515,0.8567,0.8569,0.8573,0.8581,0.8587,0.8599,0.8634,0.8616,0.8619,0.8625,0.8663,0.8672,0.8675,0.8694,0.8694,0.8696,0.8696,0.8697,0.8713,0.8713,0,0,0,0,0,0,0.8503,0.8513,0.8565,0.8568,0.8544,0.8582,0.8589,0.8599,0.8634,0.864,0.8624,0.8626,0.867,0.8673,0.8677,0.8679,0.8696,0.8697,0.8698,0.8714,0.8713,0.8713,0,0,0,0,0,0,0.8502,0.8508,0.8563,0.8541,0.8549,0.8582,0.8594,0.86,0.8609,0.8641,0.8647,0.8627,0.867,0.8675,0.8686,0.8681,0.8698,0.8699,0.8714,0.8714,0.8713,0.8681,0,0,0,0,0,0,0.8499,0.8507,0.8507,0.8541,0.855,0.8572,0.8594,0.8601,0.8612,0.8615,0.8645,0.865,0.8671,0.8684,0.8687,0.8683,0.87,0.8715,0.8714,0.8713,0.8683,0.8679,0.8676,0,0,0,0,0,0.8497,0.8495,0.8507,0.8513,0.8552,0.8572,0.8577,0.8602,0.8612,0.8612,0.8633,0.8649,0.8681,0.8684,0.8689,0.8685,0.8715,0.8714,0.8713,0.8684,0.868,0.8677,0,0,0,0,0,0,0.8457,0.85,0.8514,0.8523,0.8544,0.8578,0.8579,0.8596,0.8613,0.8615,0.8645,0.8651,0.8659,0.8673,0.8676,0.8686,0.87,0.87,0.8676,0.8673,0.867,0.8666,0.8702,0,0,0,0,0,0.845,0.8464,0.85,0.8505,0.8515,0.8545,0.8555,0.8573,0.8594,0.8603,0.8624,0.8643,0.8658,0.8666,0.8681,0.8685,0.8692,0.8685,0.8682,0.8679,0.8678,0.8682,0.8679,0.871,0.871,0.871,0,0,0.8434,0.8459,0.8466,0.8497,0.8515,0.8528,0.8552,0.8564,0.8573,0.8604,0.8616,0.8632,0.8656,0.8664,0.8668,0.8676,0.8672,0.8678,0.8676,0.8676,0.8681,0.8678,0.8675,0.8709,0.8709,0.8709,0,0,0.8412,0.8433,0.844,0.8458,0.8486,0.8507,0.8508,0.8541,0.8553,0.8567,0.859,0.8601,0.8625,0.8641,0.8652,0.8639,0.8655,0.8643,0.8626,0.8629,0.8627,0.8625,0.862,0.8618,0.8642,0.8642,0.8642,0,0.8389,0.841,0.844,0.8452,0.8465,0.8496,0.8502,0.8518,0.8548,0.8556,0.8565,0.8597,0.8615,0.8627,0.8624,0.8632,0.8634,0.8639,0.8625,0.8624,0.8622,0.8617,0.8615,0.8641,0.8641,0.8641,0.8641,0,0.838,0.8395,0.8396,0.8428,0.8441,0.845,0.848,0.849,0.8507,0.8527,0.854,0.8563,0.8583,0.8588,0.8604,0.8603,0.8607,0.862,0.8634,0.8617,0.8613,0.8612,0.8638,0.8639,0.8639,0.864,0,0,0.8332,0.8382,0.8382,0.8397,0.8431,0.8443,0.8453,0.8475,0.8483,0.8503,0.8512,0.8533,0.8546,0.8559,0.8577,0.858,0.8568,0.8593,0.8594,0.8587,0.8568,0.8557,0.8554,0.858,0.858,0.8579,0.8566,0,0.8315,0.8337,0.8365,0.8376,0.839,0.8421,0.843,0.8451,0.847,0.8484,0.8504,0.8519,0.8535,0.8543,0.8548,0.8569,0.8564,0.857,0.8587,0.8587,0.8579,0.8552,0.854,0.8526,0.8564,0.8564,0.8564,0,0.8297,0.8318,0.8332,0.8367,0.8373,0.8381,0.8404,0.8417,0.8442,0.8456,0.8471,0.8492,0.8504,0.8518,0.8534,0.8537,0.8546,0.8557,0.8557,0.8559,0.8573,0.8552,0.8522,0.852,0.8562,0.8562,0.8562,0,0.826,0.8292,0.8305,0.8317,0.8358,0.8362,0.8379,0.8405,0.8417,0.8437,0.8445,0.8465,0.8476,0.8491,0.8516,0.8524,0.8529,0.8545,0.854,0.8539,0.8538,0.8537,0.8508,0.8545,0.8545,0.8545,0.8545,0,0.8237,0.8243,0.8289,0.8297,0.8305,0.8338,0.8345,0.8365,0.8388,0.8399,0.8426,0.8436,0.847,0.8483,0.8503,0.8513,0.8518,0.8528,0.8533,0.8525,0.8524,0.853,0.8531,0.8545,0.8545,0.8545,0.8545,0,0.8196,0.8227,0.8243,0.8281,0.8291,0.8296,0.8328,0.8336,0.8358,0.8372,0.8377,0.841,0.8427,0.8455,0.848,0.8493,0.8499,0.8508,0.8491,0.8494,0.8487,0.8487,0.846,0.8457,0.8497,0.8496,0.8496,0,0.8178,0.8185,0.8225,0.8236,0.8253,0.8269,0.8282,0.8315,0.8327,0.8357,0.8361,0.8381,0.8399,0.8425,0.845,0.847,0.8479,0.8468,0.8481,0.8473,0.8478,0.8476,0.8477,0.8464,0.8463,0.8463,0.8463,0,0.8144,0.816,0.8179,0.8203,0.8219,0.824,0.8261,0.8268,0.8305,0.8317,0.8337,0.8351,0.8377,0.8396,0.842,0.8436,0.8455,0.8459,0.8458,0.8449,0.8439,0.8444,0.8482,0.8459,0.8459,0.8459,0.846,0.846,0.8114,0.8121,0.8152,0.8172,0.8193,0.8213,0.8223,0.8247,0.8264,0.829,0.8308,0.8326,0.8352,0.8385,0.8401,0.8414,0.8423,0.8422,0.8422,0.8421,0.8418,0.8438,0.8419,0.8419,0.8419,0.8419,0.8419,0,0.808,0.8102,0.8121,0.8151,0.8168,0.8188,0.8213,0.8225,0.8241,0.8264,0.8282,0.8304,0.8324,0.8352,0.8373,0.8378,0.8388,0.8383,0.8382,0.8385,0.8409,0.8407,0.8375,0.8375,0.8375,0.8375,0.8375,0.8375,0.8064,0.8078,0.8098,0.8123,0.8144,0.8164,0.8176,0.8195,0.8214,0.8239,0.8256,0.8275,0.83,0.8324,0.8342,0.835,0.8356,0.8348,0.8358,0.8379,0.8383,0.8387,0.8386,0.8349,0.8349,0.8333,0.8333,0.8333]},{"header":{"parameterUnit":"m.s-1","parameterCategory":1,"la1":30.2991,"la2":30.254,"lo1":-89.0895,"lo2":-89.0444,"dy":0.0017,"dx":0.0017,"nx":28,"ny":28,"refTime":"2025-08-20T21:00:00:Z","depth":0,"parameterNumber":3,"parameterNumberName":"V-component_of_WINDS"},"data":[0,0,0,0,0,0,0,0,0,0,0,0,0,0,0,0,0,0,0,0,0,0,0,0,0,0,0,0,0,0,0,0,0,0,0,0,0,0,0,0,0,0,0,0,0,0,0,0,0,0,0,0,0,0,0,0,0,0,4.1306,4.1307,0,4.1358,4.1359,4.1359,4.1302,4.1299,4.1297,4.1295,4.1346,4.1349,4.1352,0,0,0,0,0,0,0,0,0,0,0,0,0,4.1151,4.1154,4.1306,4.1307,4.1307,4.1358,4.1359,4.136,4.1302,4.1299,4.1297,4.1294,4.1345,4.1349,4.1353,0,0,0,0,0,0,0,0,0,0,0,0,0,4.1212,4.1155,4.1306,4.1285,4.1283,4.1358,4.1359,4.136,4.1302,4.1299,4.1296,4.1293,4.1343,4.1348,4.1353,4.145,0,0,4.1369,4.1371,0,0,0,0,0,0,0,0,4.1209,4.1218,4.1287,4.1286,4.1285,4.132,4.1323,4.139,4.1303,4.1295,4.1295,4.1291,4.134,4.1345,4.1362,4.1453,4.1455,4.1369,4.1372,4.1375,4.1376,0,0,0,0,0,0,0,4.1205,4.1215,4.1327,4.1288,4.1287,4.1271,4.1276,4.1335,4.1335,4.1296,4.1292,4.1299,4.1338,4.1357,4.1363,4.1456,4.1369,4.1374,4.1377,4.1379,4.1623,4.1626,0,0,0,0,0,0,4.1203,4.1212,4.1325,4.1328,4.1238,4.1276,4.1282,4.1312,4.1334,4.1335,4.1301,4.1296,4.135,4.1357,4.1364,4.1475,4.1374,4.1379,4.1382,4.162,4.1624,4.1628,0,0,0,0,0,0,4.12,4.1214,4.1323,4.1269,4.1282,4.1283,4.1317,4.1315,4.1333,4.1339,4.1338,4.1321,4.1348,4.1357,4.1428,4.1476,4.1382,4.1386,4.1616,4.1621,4.1626,4.1701,0,0,0,0,0,0,4.1196,4.1213,4.1252,4.1271,4.1285,4.1388,4.132,4.1318,4.1343,4.1336,4.1357,4.1357,4.1346,4.1421,4.1433,4.1482,4.139,4.1611,4.1618,4.1624,4.1694,4.1708,4.172,0,0,0,0,0,4.1191,4.1272,4.1254,4.1268,4.1333,4.1391,4.1399,4.1385,4.1347,4.1384,4.1387,4.1356,4.147,4.1429,4.1442,4.1493,4.1608,4.1616,4.1624,4.1689,4.1706,4.172,0,0,0,0,0,0,4.1259,4.1274,4.1255,4.1344,4.1367,4.1381,4.1428,4.1405,4.1438,4.143,4.1411,4.1416,4.1491,4.1499,4.1454,4.1585,4.1532,4.1543,4.1577,4.1593,4.1606,4.1601,4.1394,0,0,0,0,0,4.1285,4.1332,4.1342,4.142,4.1432,4.1428,4.1453,4.144,4.1462,4.1471,4.148,4.1501,4.1541,4.1568,4.1605,4.1696,4.1697,4.1737,4.175,4.176,4.1769,4.1813,4.1829,4.1653,4.1653,4.1653,0,0,4.1338,4.1352,4.1383,4.1434,4.145,4.1496,4.1437,4.149,4.1523,4.1479,4.1546,4.1553,4.1575,4.1655,4.1691,4.1665,4.1818,4.177,4.1779,4.1782,4.1822,4.1839,4.1854,4.1658,4.1657,4.1657,0,0,4.1458,4.1475,4.1539,4.1556,4.158,4.1577,4.1592,4.1609,4.1612,4.1679,4.1645,4.1684,4.1755,4.1771,4.1788,4.191,4.1882,4.1923,4.1989,4.2032,4.2046,4.2058,4.2098,4.2113,4.1932,4.1932,4.1932,0,4.152,4.1591,4.1575,4.1629,4.1651,4.1613,4.1675,4.1692,4.1728,4.1742,4.1713,4.1797,4.181,4.1891,4.192,4.1937,4.1951,4.192,4.2046,4.2058,4.2069,4.2106,4.2122,4.1937,4.1936,4.1936,4.1935,0,4.1664,4.1713,4.1762,4.1796,4.1823,4.1882,4.1873,4.1902,4.1886,4.1884,4.1951,4.1964,4.2002,4.2021,4.2006,4.2098,4.2081,4.2049,4.1995,4.209,4.2125,4.214,4.1943,4.1942,4.194,4.1939,0,0,4.183,4.1852,4.187,4.1882,4.1905,4.1942,4.1997,4.2033,4.2057,4.2082,4.2125,4.2184,4.2153,4.2173,4.216,4.2198,4.2288,4.216,4.2161,4.2181,4.2386,4.2408,4.2425,4.227,4.2273,4.2275,4.2383,0,4.1947,4.2043,4.2028,4.212,4.2162,4.2125,4.2172,4.219,4.219,4.2224,4.2223,4.2264,4.2222,4.2233,4.2269,4.227,4.2328,4.2262,4.2307,4.2309,4.23,4.2444,4.2468,4.2569,4.2397,4.2399,4.2401,0,4.2097,4.2125,4.2221,4.2233,4.225,4.2293,4.2323,4.2358,4.2375,4.2372,4.2392,4.2371,4.2423,4.2369,4.2439,4.2394,4.2411,4.2414,4.2417,4.2419,4.2359,4.2446,4.2602,4.2616,4.2423,4.2421,4.2419,0,4.2203,4.2266,4.233,4.2343,4.2359,4.2389,4.2397,4.2412,4.2433,4.2459,4.2472,4.2504,4.2521,4.2545,4.2532,4.2495,4.2602,4.2549,4.2598,4.2599,4.2621,4.262,4.2779,4.2638,4.2637,4.2637,4.2637,0,4.2334,4.2393,4.2377,4.2416,4.248,4.2462,4.2525,4.2528,4.2541,4.2578,4.2548,4.2584,4.2565,4.2599,4.2589,4.2645,4.2654,4.2651,4.2647,4.2652,4.2652,4.2662,4.2653,4.2641,4.264,4.2639,4.2639,0,4.2463,4.2455,4.2522,4.2531,4.2534,4.258,4.2587,4.2622,4.2618,4.2666,4.2676,4.267,4.2707,4.2697,4.2738,4.2731,4.2801,4.279,4.2795,4.2791,4.2841,4.2835,4.301,4.303,4.2878,4.288,4.2881,0,4.2545,4.2589,4.2602,4.2625,4.2635,4.2672,4.2693,4.2676,4.2699,4.272,4.2752,4.2787,4.2813,4.2874,4.2873,4.2903,4.289,4.2949,4.2894,4.2897,4.2887,4.2883,4.2886,4.2959,4.2961,4.2962,4.2963,0,4.2692,4.2685,4.2716,4.2746,4.2771,4.2794,4.2813,4.2833,4.2817,4.2844,4.2881,4.2902,4.2942,4.2975,4.3002,4.3008,4.2982,4.2981,4.2993,4.2998,4.2998,4.2995,4.2822,4.2976,4.2975,4.2974,4.2973,4.2973,4.2798,4.2833,4.2847,4.2882,4.2894,4.2912,4.2944,4.2944,4.2975,4.3006,4.2994,4.3036,4.3049,4.3082,4.3092,4.3123,4.31,4.3119,4.3124,4.3128,4.3133,4.2995,4.3128,4.3128,4.3127,4.3127,4.3127,0,4.2939,4.2945,4.2978,4.3005,4.3032,4.3005,4.3024,4.3048,4.3085,4.31,4.3125,4.3166,4.3198,4.3198,4.3227,4.3252,4.324,4.326,4.3256,4.3258,4.3153,4.3138,4.3268,4.3268,4.3268,4.3268,4.3268,4.3268,4.3016,4.3074,4.3068,4.313,4.3135,4.3176,4.3188,4.3204,4.3214,4.3262,4.3287,4.3287,4.3295,4.3323,4.335,4.3349,4.336,4.3383,4.3378,4.328,4.3265,4.3252,4.3237,4.3386,4.3387,4.3479,4.348,4.348]}]]